Regional Weather Roundup
Issued by NWS

Home | Current Version | Previous Version | Graphics & Text | Print | Product List | Glossary On
Versions: 1 2 3 4 5 6 7 8 9 10 11 12 13 14 15 16 17 18 19 20 21 22 23 24 25 26 27 28 29 30 31 32 33 34 35 36 37 38 39 40 41 42 43 44 45 46 47 48 49 50
000
ASUS45 KSLC 022310
RWRUT

UTAH REGIONAL WEATHER ROUNDUP
NATIONAL WEATHER SERVICE SALT LAKE CITY UT
500 PM MDT THU JUL 02 2015

UTZ001>011-023>025-030000-

NORTHERN UTAH

CITY           SKY/WX    TMP DP  RH WIND       PRES   REMARKS
BRIGHAM CITY   MOSUNNY   96  35  11 W3        30.00F HX  91
HILL AFB       SUNNY     94  48  20 W9        30.05F HX  90
LOGAN          SUNNY     93  46  19 S5        30.02F
OGDEN          SUNNY     95  43  16 NW3       30.01F HX  91
PROVO AIRPORT  MOSUNNY   95  41  15 NW9       30.02F HX  91
SALT LAKE CITY PTSUNNY   98  37  12 W8        29.99F HX  93
VERNAL         MOSUNNY   93  39  15 SW8       30.04F
WENDOVER       CLOUDY    97  45  16 SW15      30.01F HX  93
HEBER CITY     SUNNY     95  32  11 W12       30.10F HX  90
WEST JORDAN    SUNNY     93  37  14 NW13      30.05F

$$

UTZ012>022-026-027-030000-

SOUTHERN/CENTRAL UTAH

CITY           SKY/WX    TMP DP  RH WIND       PRES   REMARKS
BLANDING       PTSUNNY   85  55  35 NE7       30.15F
BRYCE CANYON   LGT RAIN  72  47  40 NW13G21   30.34R
CEDAR CITY     CLOUDY    82  44  26 SE17G26   30.14F
DELTA          SUNNY     96  36  12 N8        30.01F HX  91
HANKSVILLE     SUNNY    100  37  11 NW6       29.97F HX  95
MILFORD        MOSUNNY   96  43  16 S7        30.03F HX  92
MOAB/CYNLANDS  SUNNY     96  48  19 CALM      29.95F HX  92
PRICE          MOSUNNY   93  38  14 W7        30.08F
ST GEORGE      CLEAR    100  55  22 W9G18     29.90F HX  99
KANAB          PTSUNNY   81  54  39 N21G30    30.14R

$$

REGIONAL REPORTS     COLORADO/ARIZONA

CITY           SKY/WX    TMP DP  RH WIND       PRES   REMARKS
CRAIG, CO      MOSUNNY   92  37  14 NE9       30.13F
GRAND JUNCTION PTSUNNY   93  44  18 W7        29.99F
RIFLE          MOSUNNY   94  44  17 VRB6      30.05F HX  90
MONTROSE       CLOUDY    90  48  23 NW6       30.10F
CORTEZ         PTSUNNY   88  51  28 NE16G22   30.08F THUNDER
PAGE, AZ       PTSUNNY  100  48  17 W10G22    29.97F HX  96
GRAND CANYON   MOSUNNY   86  48  26 VRB6      30.21F
KINGMAN        SUNNY     98  51  20 W14G23    29.98F HX  95
FLAGSTAFF      PTSUNNY   80  52  37 SW8       30.24F

$$

REGIONAL REPORTS    NEVADA/IDAHO/WYOMING

CITY           SKY/WX    TMP DP  RH WIND       PRES   REMARKS
LAS VEGAS, NV  MOSUNNY  103  55  20 SE8       29.80F HX 101
ELY            PTSUNNY   88  43  20 NE17      30.20F
ELKO           CLOUDY    89  46  22 S15G23    30.12R
POCATELLO, ID  MOSUNNY   95  40  14 CALM      30.04F HX  91
BURLEY         SUNNY     94  39  14 CALM      30.00F HX  90
EVANSTON, WY   MOSUNNY   85  39  19 CALM      30.23F
ROCK SPRINGS   MOSUNNY   87  43  21 NW7       30.18F
KEMMERER       SUNNY     86  36  16 NW10      30.24F

$$


USA.gov is the U.S. government's official web portal to all federal, state and local government web resources and services.